Terminal Aerodrome Forecast
Issued by NWS

Home | Current Version | Previous Version | Text Only | Print | Product List | Glossary On
Versions: 1 2 3 4 5 6 7 8 9 10 11 12 13 14 15 16 17 18
000
FTUS46 KLOX 250500 RRA
TAFLGB
TAF
KLGB 250543Z 2506/2606 30006KT P6SM BKN022
     FM251000 33010KT P6SM SCT150
     FM260300 VRB03KT P6SM SKC=

USA.gov is the U.S. government's official web portal to all federal, state and local government web resources and services.